Preview of NWS' New Version of Forecast
This preview is not operational and should not be used for support decisions.

Regional Weather Roundup (RWR)

Issued by National Weather Service (NWS)

                            
000
ASUS43 KLSX 230157
RWRMO 

WEATHER SUMMARY FOR MISSOURI
NATIONAL WEATHER SERVICE SPRINGFIELD MO
900 PM CDT WED MAY 22 2019

NOTE: "FAIR" INDICATES FEW OR NO CLOUDS BELOW 12,000 FEET WITH NO
       SIGNIFICANT WEATHER AND/OR OBSTRUCTIONS TO VISIBILITY.
       CURRENT SKY AND/OR WEATHER CONDITIONS ARE NOT AVAILABLE FOR
       CHILLICOTHE AND FARMINGTON.

MOZ001>031-035>038-043-044-053-054-230300-
...NORTHERN AND WESTERN MISSOURI...
  
CITY           SKY/WX    TMP DP  RH WIND       PRES   REMARKS
KANSAS CTY INT CLOUDY    66  58  75 NW5       29.85R                  
LEE'S SUMMIT   CLOUDY    64  62  93 CALM      29.84R                  
ST JOSEPH      CLOUDY    63  55  75 W7        29.85R                  
CHILLICOTHE      N/A     62  61  96 CALM      29.84R                  
     
$$
MOZ066>068-077>081-088>096-101>105-230300-
...SOUTHWEST MISSOURI...
  
CITY           SKY/WX    TMP DP  RH WIND       PRES   REMARKS
SPRINGFIELD    CLOUDY    79  68  69 S9        29.87R                  
JOPLIN         LGT RAIN  75  71  87 SE5       29.80S                  
BRANSON        CLOUDY    77  70  78 S10       29.89R                  
               
$$
MOZ032>034-039>042-045>050-055>058-069>072-230300-
...CENTRAL MISSOURI...  
  
CITY           SKY/WX    TMP DP  RH WIND       PRES   REMARKS
COLUMBIA       NOT AVBL                                               
ROLLA          CLOUDY    77  67  71 S9        29.87S                  
SEDALIA        LGT RAIN  69  69 100 W12G18    29.84R                  
WARRENSBURG    CLOUDY    66  63  88 W3        29.83R                  
               
$$
MOZ051-052-059>065-230300-
...EAST CENTRAL MISSOURI...
  
CITY           SKY/WX    TMP DP  RH WIND       PRES   REMARKS
ST LOUIS INTL  MOCLDY    80  68  66 S16G23    29.88R                  
                   
$$
MOZ072>076-082>087-097>100-106>115-230300-
...SOUTH CENTRAL AND SOUTHEAST MISSOURI...
  
CITY           SKY/WX    TMP DP  RH WIND       PRES   REMARKS
CAPE GIRARDEAU FAIR      78  73  84 SE9       29.94R                  
POPLAR BLUFF   FAIR      80  74  81 S8        29.92R                  
WEST PLAINS    CLOUDY    78  72  81 S10       29.92S                  
                                       
$$